Lapse_Rate
7.0 7.3 7.4 7.1 7.2 7.1 6.6 6.3 6.1 6.0 5.8 5.8 5.7 5.9 5.9 5.9 5.9 7.7 9.1 8.6 8.1 7.7 7.7 8.2 8.2 7.4 7.4 7.2 6.5 6.7 6.7 6.8 6.5 6.5 6.5 6.5 6.5 6.5 6.5 6.5 6.5 6.5 6.5 6.5 6.5 6.5 6.5 7.0 6.7 6.5 6.7 7.2 7.3 7.3
7.0 6.7 6.8 6.8 6.8 7.0 7.2 7.1 6.4 6.2 6.0 6.0 5.9 6.0 5.9 5.8 6.0 6.8 8.8 8.9 7.5 8.0 5.2 6.8 7.6 8.4 8.2 7.7 7.3 6.7 6.9 7.0 7.0 6.5 6.5 6.5 6.5 6.5 6.5 6.5 6.5 6.5 6.5 6.5 6.5 6.5 6.7 7.2 6.9 7.5 7.6 7.3 7.4 7.4
7.0 6.7 6.6 6.4 6.5 6.6 6.9 7.2 7.3 7.3 6.4 6.1 6.1 6.1 6.1 5.9 6.0 7.3 9.0 7.7 7.5 5.8 5.8 6.7 7.6 7.6 8.9 9.0 8.6 6.6 7.1 7.5 7.3 7.8 6.3 6.5 6.5 6.5 6.5 6.5 6.5 6.5 6.7 6.5 6.5 6.5 6.5 6.8 7.5 7.5 7.8 7.6 7.9 8.0
6.7 6.9 6.6 6.6 6.6 6.6 6.8 6.7 6.8 6.8 6.2 6.1 6.1 6.2 6.3 6.4 6.3 6.9 8.5 7.4 7.8 6.9 6.6 5.7 6.8 6.2 8.5 7.7 8.1 9.0 8.4 8.4 8.2 7.5 6.7 6.5 6.5 6.9 6.5 6.5 6.5 6.6 6.6 6.5 6.5 6.5 6.9 7.2 7.5 7.6 7.4 7.2 7.7 7.8
6.7 6.9 6.8 6.7 6.7 6.8 6.7 6.5 6.4 6.3 6.2 6.2 6.1 6.2 6.4 6.8 6.9 7.3 7.9 7.8 7.7 7.7 6.9 6.8 5.8 6.7 7.7 7.3 8.1 8.4 8.5 8.0 7.5 6.9 6.5 6.5 6.8 6.6 6.6 6.5 6.5 6.9 6.5 6.5 6.5 6.8 6.8 7.0 7.7 8.0 7.7 7.7 7.9 7.7
7.1 6.8 6.8 6.7 6.7 6.7 6.7 6.6 6.5 6.6 6.7 6.4 6.2 6.4 7.4 7.5 7.6 7.7 7.4 7.7 8.0 7.1 7.0 6.5 5.7 6.4 8.2 8.5 8.1 8.4 8.3 7.9 7.7 6.9 6.4 7.2 7.7 6.9 6.5 6.5 6.8 7.3 7.5 7.5 6.7 7.5 7.4 7.6 7.6 8.2 7.9 8.0 8.2 7.9
7.3 7.1 6.8 6.6 6.8 6.8 6.8 6.7 6.4 6.7 6.9 7.2 6.7 7.2 7.2 7.5 7.6 8.4 7.7 8.3 6.3 7.3 5.7 6.4 6.7 6.6 7.1 8.4 8.0 7.8 8.0 7.9 7.7 7.1 6.9 7.0 6.6 7.1 6.5 6.5 6.9 7.4 7.6 7.5 7.6 7.7 6.9 7.7 7.3 8.1 8.2 8.3 7.2 8.3
7.1 7.1 7.0 7.0 7.0 6.9 6.9 6.6 6.6 6.7 7.5 8.2 8.0 7.3 6.9 6.8 7.5 7.7 7.9 6.8 6.7 7.3 6.3 6.5 6.5 6.9 6.3 6.9 6.6 7.5 7.1 7.6 7.5 7.1 7.2 6.8 7.1 6.8 6.5 6.7 7.3 7.6 7.8 7.6 7.5 7.9 7.9 8.0 8.2 7.8 8.2 8.0 7.7 8.0
7.2 7.0 7.0 7.2 7.1 7.1 7.1 7.0 7.0 6.8 6.9 8.0 7.7 7.5 7.6 7.6 7.6 8.7 8.8 7.7 7.8 7.1 6.4 6.5 6.5 6.5 6.6 7.1 6.9 7.3 7.4 6.5 7.6 6.6 6.7 6.9 6.5 6.5 6.6 6.9 7.2 7.5 7.2 7.4 8.0 8.1 8.0 7.6 7.9 7.6 7.8 8.0 7.9 7.9
7.2 7.1 6.9 7.0 7.1 7.2 7.1 7.1 7.1 7.0 6.9 7.6 7.8 7.1 6.1 7.1 9.4 8.2 7.5 7.0 6.5 6.6 7.5 6.6 7.4 6.5 7.4 7.0 6.7 6.8 7.1 6.5 6.5 6.6 7.3 6.5 6.5 7.3 7.7 7.8 7.7 7.5 7.9 8.0 7.0 6.8 7.0 7.1 7.2 6.9 7.4 8.1 8.1 7.9
7.0 7.1 7.4 7.2 7.2 7.4 7.2 7.1 7.0 7.1 7.6 7.7 5.6 6.0 7.8 9.1 8.1 6.7 6.1 6.5 6.3 6.6 7.1 7.4 7.5 6.6 7.9 6.5 6.5 7.0 6.5 6.5 6.5 6.5 6.5 6.5 6.5 6.5 7.7 7.8 7.8 8.0 8.0 8.1 8.1 7.8 7.6 7.6 7.2 5.2 6.9 7.6 7.6 7.5
6.9 6.8 6.7 6.9 6.8 7.3 7.5 7.2 7.1 7.4 7.9 6.8 7.4 6.9 7.2 7.3 6.1 6.5 6.5 6.6 6.5 6.5 7.2 6.8 7.1 7.4 7.4 7.9 6.8 6.9 6.5 6.5 6.5 6.7 6.5 6.5 6.5 7.3 7.6 7.7 7.8 7.8 7.9 8.0 8.3 8.1 7.8 7.8 6.2 6.0 6.8 7.2 7.0 7.5
6.8 6.7 6.5 6.6 6.7 7.0 7.2 6.9 7.4 7.8 7.2 7.9 7.4 6.5 5.8 6.5 6.5 6.5 6.5 6.5 6.5 6.8 7.2 7.1 6.5 7.1 7.3 7.5 6.5 6.5 6.5 6.5 6.8 6.5 6.5 6.5 6.8 7.2 7.3 7.4 7.4 8.0 7.8 7.4 7.5 7.9 7.4 6.4 6.2 6.2 6.7 6.7 7.2 6.9
7.0 6.8 6.7 6.9 6.8 6.6 6.8 7.0 7.1 6.8 7.7 6.8 6.5 6.5 6.5 6.5 6.5 6.5 6.5 6.5 7.1 7.2 7.4 7.2 7.0 6.8 7.1 6.5 6.5 6.5 6.5 6.5 6.5 6.5 6.5 6.5 6.0 6.9 7.5 7.6 7.7 7.7 7.8 7.5 7.7 7.5 7.0 5.2 6.1 5.7 4.8 4.6 4.9 4.5
6.7 6.9 6.9 6.9 6.9 6.7 6.5 7.0 6.3 6.8 5.9 6.5 6.9 6.5 6.5 6.8 7.1 7.1 7.5 7.2 7.8 8.0 7.6 6.8 7.0 7.0 6.5 6.5 6.5 6.5 6.5 6.5 6.5 6.5 6.5 5.7 7.1 7.5 7.5 7.5 7.6 7.4 6.3 6.8 7.7 4.8 0.2 0.5 1.5 1.6 2.4 4.7 3.2 1.6
7.4 7.1 7.0 7.1 7.0 6.9 6.4 6.5 6.7 5.1 5.0 6.0 6.4 6.5 6.9 6.6 6.4 6.4 6.8 6.8 8.0 7.9 7.6 7.1 6.5 6.5 6.5 6.5 6.5 6.5 6.5 6.5 6.5 6.5 6.4 7.3 7.5 7.5 7.5 7.1 7.1 6.9 7.9 8.0 6.3 4.0 3.3 2.2 2.4 3.2 5.2 3.0 1.5 1.8
7.0 6.5 6.9 6.9 6.7 6.4 6.3 6.3 6.0 4.7 5.7 6.6 6.5 7.4 6.7 6.8 6.6 6.7 7.2 7.2 8.4 7.3 6.5 6.6 6.5 6.5 6.5 6.5 6.5 6.5 6.5 6.5 6.1 6.2 6.5 7.6 7.5 7.5 7.5 6.5 4.9 5.9 7.3 8.0 5.5 5.5 4.4 4.7 4.4 5.6 4.6 3.3 3.9 2.9
7.1 6.3 6.4 6.6 6.6 6.7 6.1 4.9 5.3 5.8 6.9 6.7 6.6 6.7 7.0 6.9 6.6 6.7 6.9 8.1 7.4 7.2 7.1 6.5 6.9 6.5 6.5 6.5 6.5 6.5 6.4 6.3 6.3 6.3 6.6 7.2 7.7 7.9 7.7 7.7 5.4 6.8 7.5 7.0 6.2 6.3 6.1 6.2 6.2 7.1 5.9 4.7 4.9 4.1
6.7 6.9 6.6 6.7 6.7 4.9 4.8 5.5 5.8 6.8 6.9 6.6 7.1 6.8 7.1 6.7 6.9 6.8 7.1 7.6 7.8 8.1 7.1 6.6 6.5 6.5 6.5 6.5 6.4 6.2 6.2 6.3 6.3 6.6 6.6 7.6 7.9 6.2 6.1 6.4 6.0 7.0 7.6 6.7 7.0 7.3 7.8 8.0 8.0 8.2 5.6 5.7 4.9 5.0
6.5 6.4 6.7 6.7 7.2 6.9 6.5 6.5 6.1 6.8 6.5 7.0 7.6 7.1 7.1 7.0 7.1 6.3 6.6 7.1 7.2 6.9 6.4 6.5 6.5 6.5 6.5 6.4 6.6 6.6 6.5 6.5 6.5 6.3 6.8 6.7 6.6 6.3 6.9 6.2 6.9 8.1 7.8 7.8 8.1 7.9 8.6 8.6 8.8 8.1 6.4 6.8 6.2 6.0
6.6 5.9 5.9 7.0 6.5 6.1 7.1 6.7 6.9 6.4 7.3 7.0 7.5 7.2 6.9 7.2 7.0 6.6 6.4 7.1 6.4 6.3 6.5 6.9 6.6 6.6 4.9 4.9 6.1 7.0 6.8 7.5 6.6 6.8 7.1 7.2 7.5 7.4 7.8 7.5 8.2 8.0 7.9 8.1 8.2 8.2 8.0 8.4 8.4 7.9 6.7 7.1 7.0 7.1
6.0 6.3 6.4 6.9 6.8 5.9 6.3 6.4 7.4 7.6 7.1 7.0 7.0 7.3 6.7 6.5 6.5 6.7 7.3 6.7 6.6 6.8 6.8 6.7 6.7 5.7 4.6 4.7 5.0 6.7 6.2 7.2 4.8 4.5 3.4 4.3 5.9 7.4 7.6 7.7 8.0 7.7 8.0 7.9 8.1 7.8 8.2 8.3 8.1 7.6 6.9 6.6 7.0 6.9
6.9 7.1 7.2 7.1 6.2 6.5 6.3 6.5 6.8 6.6 6.5 6.5 6.9 6.5 6.5 6.6 6.9 7.6 6.6 7.1 6.9 7.0 7.0 7.3 7.1 7.0 6.8 6.2 6.4 6.6 5.6 6.8 6.3 5.8 4.7 6.0 6.7 7.2 7.8 8.0 8.1 7.3 7.6 8.0 8.3 7.7 7.2 7.4 6.6 6.0 6.0 6.3 6.4 5.7
6.0 5.2 6.0 6.8 6.6 6.5 6.1 6.8 7.4 6.9 6.8 6.5 6.5 6.5 6.5 6.6 6.6 6.7 6.5 6.7 7.1 7.5 7.3 7.2 7.4 7.2 7.2 6.9 6.2 5.7 5.2 6.0 7.2 6.2 5.4 6.7 7.6 7.9 8.2 8.2 8.3 8.0 8.1 8.0 7.7 7.3 6.4 6.0 5.4 5.4 5.4 6.0 5.5 4.4
6.5 6.2 6.4 6.5 5.9 6.5 6.5 6.5 6.5 6.5 6.5 6.5 6.5 6.5 6.5 7.0 6.5 6.5 6.5 6.6 6.9 6.8 7.1 7.0 6.5 7.4 7.2 6.8 6.0 6.3 5.7 5.3 6.5 7.1 6.7 7.9 8.0 7.9 8.1 8.3 8.3 8.3 8.0 6.7 7.0 6.1 5.6 5.0 5.2 4.8 5.1 5.1 4.4 5.0
6.5 6.7 6.6 6.5 6.5 6.5 6.5 6.5 6.5 6.5 6.5 6.5 6.5 6.6 6.8 6.5 6.5 6.5 6.5 6.7 6.5 6.6 4.7 5.9 7.1 7.5 7.5 7.6 7.5 7.3 6.5 7.1 7.1 7.8 7.9 7.7 8.0 6.4 6.3 6.8 7.2 7.9 8.3 7.2 5.6 5.2 4.6 4.5 4.5 4.2 4.3 4.6 5.5 5.8
6.5 6.5 7.0 7.8 7.2 7.0 6.6 6.6 6.8 6.5 6.5 6.5 6.5 6.5 6.5 6.5 6.5 6.5 7.3 5.5 6.8 5.6 6.3 6.7 7.6 7.6 7.7 7.3 6.3 6.0 6.5 7.4 7.3 7.9 7.5 7.9 8.1 7.6 6.6 6.8 7.5 7.6 7.3 5.6 4.1 3.8 2.8 3.0 3.5 3.7 4.4 5.6 5.4 4.9
6.8 6.9 6.5 6.7 6.6 7.0 6.5 6.5 6.5 6.5 6.5 6.8 6.7 6.5 6.5 6.5 6.5 7.0 6.8 7.0 6.4 6.7 6.7 6.7 6.5 6.3 6.7 5.2 4.6 4.9 5.3 4.4 4.3 6.1 6.2 6.3 6.7 6.1 5.8 6.3 6.2 5.2 5.0 3.6 2.9 2.9 3.3 3.4 3.4 3.9 4.5 4.4 3.7 4.3
6.7 7.2 7.0 6.5 6.5 6.6 6.5 6.5 6.5 6.9 7.4 7.0 6.5 6.5 6.5 7.4 7.0 7.2 7.1 6.6 6.3 7.5 6.7 5.9 5.1 4.6 4.5 4.8 4.6 4.8 4.6 5.8 6.2 6.3 6.5 6.8 6.5 6.1 5.8 5.7 5.3 4.2 3.2 2.8 2.5 3.1 3.4 3.7 3.9 4.1 4.2 4.4 4.2 4.4
6.7 7.5 6.6 6.5 6.5 6.5 6.7 7.1 7.0 6.9 7.8 7.8 7.7 7.7 7.7 7.3 6.7 6.6 6.9 6.8 6.7 6.7 6.2 5.8 5.0 5.2 5.2 5.4 5.6 6.0 6.5 6.6 7.0 6.4 7.3 7.2 7.2 4.9 5.0 4.0 2.9 2.8 2.8 2.8 3.0 3.4 3.4 4.2 3.9 4.3 4.5 4.6 4.9 5.0
7.5 7.2 6.7 6.7 6.5 7.0 7.2 7.0 7.2 7.4 7.2 7.1 6.3 7.1 7.2 7.5 6.8 6.0 5.8 5.6 6.1 5.8 5.7 5.8 5.8 6.1 6.8 7.0 7.1 6.8 6.8 6.3 6.3 6.0 5.9 4.5 3.4 3.0 2.6 2.5 2.5 2.5 2.6 2.7 2.8 3.2 3.3 3.8 4.1 4.2 4.7 5.2 5.4 5.4
7.1 6.7 6.5 6.5 6.5 7.2 7.0 7.1 7.1 7.1 7.2 7.1 7.1 7.3 7.2 7.2 7.0 7.3 5.8 5.6 6.6 6.8 6.6 6.7 6.8 6.6 6.3 6.1 6.1 6.4 5.8 4.8 4.4 3.9 3.6 2.7 2.1 2.0 2.4 2.5 2.3 2.5 2.7 3.1 3.3 3.3 3.5 3.9 4.2 4.8 4.8 5.2 5.2 5.2
6.9 7.0 7.0 6.8 6.7 6.6 7.1 7.0 6.8 6.7 6.9 6.8 6.9 7.1 7.2 7.0 6.7 7.3 5.9 5.0 5.5 6.3 6.1 5.7 5.3 4.8 4.5 4.5 4.4 3.8 3.5 3.2 2.6 2.2 2.1 2.2 2.3 2.1 2.2 2.4 2.6 3.0 3.3 3.4 3.5 3.7 4.4 4.9 5.1 5.3 5.3 5.2 5.2 5.0
Wind_Speed
18 20 25 23 23 25 25 26 26 26 27 26 27 27 25 24 22 9 7 6 3 3 6 7 8 10 9 2 8 9 8 4 5 6 5 4 5 8 10 10 8 9 9 5 4 3 7 12 12 4 5 4 1 1
20 20 21 22 23 25 27 26 26 25 24 25 25 25 25 25 24 20 6 8 1 3 3 6 9 5 5 7 5 5 7 8 6 5 5 3 5 5 11 9 14 7 7 6 10 7 10 4 5 6 3 2 3 2
22 23 23 23 24 25 27 26 26 26 24 24 24 25 25 26 25 22 7 5 2 2 4 6 4 6 6 4 5 3 3 3 5 3 3 4 7 6 5 8 12 13 11 5 8 8 8 5 6 7 8 7 3 2
23 24 25 25 25 26 26 27 27 28 26 26 26 26 26 25 25 22 7 4 4 3 2 5 6 8 4 4 7 7 9 9 6 3 4 3 3 5 6 8 9 7 4 3 7 9 8 9 10 11 6 8 8 5
24 25 25 26 27 27 27 27 28 29 28 28 27 27 28 26 24 16 5 5 7 4 2 3 8 6 6 5 6 8 8 8 4 3 3 3 4 5 4 2 6 9 6 5 4 6 6 8 13 6 7 11 9 9
26 26 27 27 27 27 28 28 28 29 28 28 27 27 28 26 25 5 3 6 11 6 1 2 3 4 6 6 7 7 7 6 4 2 2 2 2 2 3 4 9 12 11 11 12 12 13 14 3 5 6 9 10 10
27 26 27 27 28 28 28 28 28 29 29 28 29 27 26 28 14 9 4 3 25 6 1 3 2 2 5 6 2 1 1 2 2 2 3 5 3 3 3 11 12 13 12 13 14 13 14 16 8 7 8 8 10 9
28 27 26 27 28 29 29 29 29 28 30 31 30 28 25 26 11 8 3 13 24 6 1 3 3 3 2 2 3 2 1 2 2 3 2 4 5 4 6 9 12 16 19 23 22 15 15 14 13 13 9 10 11 11
29 29 27 28 28 30 29 30 30 30 29 31 29 27 10 7 6 10 19 14 11 4 4 2 6 5 5 1 1 2 3 3 3 3 6 5 6 8 9 13 15 15 18 17 17 17 16 17 18 13 14 14 12 11
29 29 29 28 29 31 31 33 32 32 32 32 15 4 3 5 10 18 5 3 5 3 4 5 4 4 6 3 3 3 3 3 3 5 4 7 15 19 18 18 15 17 15 15 16 16 15 13 13 12 16 12 12 11
25 29 30 29 30 33 33 35 36 35 30 8 5 3 3 25 4 4 5 6 3 2 4 8 12 5 5 6 3 3 4 4 4 5 5 5 6 12 20 26 27 24 21 20 21 20 17 13 12 11 12 12 10 11
30 30 30 30 30 31 37 37 39 21 9 10 7 6 5 5 3 7 5 6 5 7 6 13 13 7 5 5 4 4 4 5 6 3 4 5 4 10 15 14 17 17 19 20 19 18 17 17 8 12 13 12 12 11
25 28 30 31 31 35 36 37 43 27 23 8 5 5 6 6 9 7 12 4 7 6 7 10 12 6 4 5 2 6 7 5 2 4 5 3 2 9 9 9 10 9 8 9 12 13 9 8 13 12 13 13 13 13
26 26 27 29 30 34 37 40 40 23 15 5 7 8 4 7 9 6 12 13 7 9 10 11 11 5 5 7 5 5 6 4 5 8 12 3 9 8 10 11 12 14 10 6 11 11 7 10 12 10 12 13 13 12
28 27 26 26 30 29 37 42 37 13 4 5 7 6 9 7 11 11 10 14 10 10 11 11 7 5 6 4 5 5 5 7 7 10 7 9 10 13 12 11 6 3 1 3 6 5 6 11 13 12 12 13 13 13
28 21 15 27 29 29 36 34 15 3 2 5 5 8 9 10 9 12 11 12 12 12 10 7 4 4 5 4 7 8 5 7 8 10 6 8 11 12 10 1 2 3 3 5 7 9 10 12 12 13 14 13 12 13
32 3 28 33 31 35 32 9 3 5 5 4 3 7 10 10 9 11 10 10 13 12 11 5 9 8 5 5 9 6 11 17 8 5 2 4 7 8 3 4 3 3 5 5 11 10 10 11 13 13 14 12 12 12
7 19 37 37 29 26 3 2 3 4 5 4 5 5 8 8 9 10 9 11 10 13 13 9 7 12 6 6 10 12 8 7 7 6 4 5 4 3 5 6 4 5 6 7 11 11 11 12 13 10 13 13 12 12
21 24 37 37 19 5 3 3 2 5 2 3 5 3 7 9 10 10 8 11 11 14 6 6 6 9 12 10 8 7 7 7 7 4 3 3 2 5 5 5 6 6 7 10 11 8 9 11 9 9 10 10 9 9
35 37 38 31 14 3 4 3 4 2 5 4 5 7 3 8 8 9 11 12 12 12 11 9 11 7 6 10 9 4 3 4 5 6 5 3 3 5 6 6 5 7 7 9 9 9 9 9 8 9 10 10 9 10
31 22 28 12 3 3 3 3 4 2 3 4 7 5 2 2 6 7 8 10 13 8 8 6 7 3 4 2 2 1 1 3 5 5 5 5 5 5 6 5 6 6 7 8 8 9 9 8 8 9 9 8 7 8
11 22 4 3 3 2 3 3 5 6 2 3 6 5 3 2 2 4 4 8 6 8 8 7 4 3 3 3 3 3 2 2 6 4 6 9 7 6 7 7 8 7 7 8 8 9 8 8 8 8 7 7 8 7
15 4 2 4 4 2 2 2 3 5 4 7 5 5 3 3 3 5 3 4 5 5 5 5 2 5 4 5 5 4 4 6 4 4 4 5 5 5 6 7 7 8 8 8 7 8 6 9 9 9 9 8 8 7
8 3 3 3 2 4 1 3 4 5 4 6 6 5 6 3 3 2 5 5 4 5 6 8 7 5 5 6 5 5 5 5 4 5 4 5 6 6 6 6 6 7 7 8 8 6 7 8 12 10 9 9 9 8
5 3 4 4 3 6 5 4 3 4 4 5 6 5 5 4 5 5 4 3 8 8 8 7 7 8 8 7 6 6 8 6 6 5 5 5 5 6 6 6 6 7 8 8 9 9 9 10 9 10 11 10 11 11
4 4 3 4 5 5 5 5 5 5 5 3 3 4 4 5 5 5 3 4 5 8 7 8 9 8 8 8 7 7 7 5 3 5 6 6 6 7 7 8 8 8 8 9 10 12 12 11 11 13 11 11 11 10
3 3 3 2 4 5 3 3 8 5 4 5 5 5 6 7 8 4 3 3 3 4 3 2 4 5 6 4 3 4 6 5 3 1 5 4 4 7 8 9 10 8 9 11 11 12 13 13 12 12 10 9 10 9
1 2 5 3 3 3 3 3 3 4 5 5 9 7 7 7 3 2 2 3 3 1 1 2 2 3 2 5 7 6 5 4 5 6 6 5 4 3 4 4 6 11 8 9 10 9 10 11 11 11 11 10 8 7
3 4 4 7 3 3 2 2 3 1 3 6 5 4 3 3 2 3 3 2 1 2 4 4 4 5 6 6 5 5 4 6 10 13 12 7 6 3 3 6 7 7 8 8 9 9 11 10 10 10 10 8 7 6
3 2 4 3 2 2 2 3 2 3 3 3 3 3 3 2 2 2 1 1 3 2 3 3 3 4 5 6 6 6 1 2 2 7 8 8 8 6 6 8 8 8 8 9 9 9 11 9 9 8 8 6 6 6
3 2 3 3 3 2 4 5 4 3 2 3 5 3 4 3 2 3 4 4 2 4 5 5 5 4 6 6 6 7 6 2 2 2 5 7 8 8 7 7 7 8 9 10 10 10 10 9 8 9 9 8 8 7
1 2 4 3 3 4 4 1 2 2 2 2 2 2 2 2 2 2 5 5 1 3 3 4 4 4 4 4 4 2 6 5 4 6 10 8 8 9 9 8 8 8 9 9 9 10 10 10 8 8 7 8 7 7
4 5 6 5 4 4 2 2 2 2 2 2 2 2 3 3 3 2 2 4 4 3 4 5 5 5 6 7 7 6 7 6 7 8 10 11 12 11 8 8 8 9 10 9 9 9 10 10 8 8 8 7 7 6
Wind_Direction
179 178 181 177 168 167 169 167 169 171 172 173 174 178 179 180 175 181 223 231 303 270 305 331 339 8 328 309 208 171 171 228 190 211 204 207 239 236 241 236 167 170 173 184 183 239 251 255 240 210 93 135 176 265
184 179 178 177 174 169 167 167 167 168 170 173 175 176 177 174 173 178 223 200 302 302 319 313 308 324 24 5 332 300 198 168 182 196 223 197 228 232 232 239 225 191 202 175 182 202 234 239 110 128 133 281 302 335
185 182 178 176 175 174 173 171 172 171 171 173 176 176 177 172 171 175 206 147 136 53 329 294 317 355 349 334 342 316 267 331 236 214 239 237 240 216 224 231 250 263 220 212 235 250 267 162 283 232 212 225 190 187
184 184 179 176 175 175 175 171 171 171 171 174 175 177 177 175 171 177 191 171 162 105 235 278 314 272 343 322 282 284 308 309 296 285 237 246 245 266 274 280 267 236 307 238 270 259 259 280 271 285 102 123 152 159
183 182 180 177 177 177 174 172 171 169 171 174 175 177 175 172 168 170 180 186 202 182 198 289 311 289 262 281 271 265 275 288 286 271 242 243 266 284 271 321 264 252 221 223 236 248 235 255 266 281 184 169 169 177
187 185 182 179 177 177 176 175 172 169 169 172 171 178 179 174 163 140 195 234 213 230 142 244 304 293 239 239 249 253 249 270 245 267 314 263 276 306 267 246 244 264 270 282 270 277 277 270 264 276 225 186 183 187
189 186 184 181 181 179 177 176 173 172 169 173 174 175 176 175 170 180 182 195 176 159 119 202 219 270 296 222 235 270 323 285 292 259 224 248 225 192 250 248 259 275 283 266 257 265 266 258 243 226 211 218 153 184
191 187 184 182 181 181 178 176 172 172 171 180 175 171 173 174 180 235 263 146 147 133 256 231 154 195 294 175 168 160 197 221 252 257 270 254 277 236 250 248 244 244 249 256 259 250 247 263 253 227 181 155 176 191
191 190 188 185 183 180 177 175 172 168 169 174 169 169 164 181 202 204 193 164 140 154 188 228 177 168 161 141 78 137 189 210 237 246 232 247 236 230 248 250 249 250 245 250 253 259 263 263 256 223 175 182 188 189
192 191 188 188 185 182 176 175 171 168 169 165 144 162 185 180 150 123 145 171 207 205 220 205 252 142 172 139 146 137 184 213 230 223 215 236 242 248 251 268 277 265 255 259 259 258 252 252 258 230 174 182 185 182
190 191 189 186 184 183 178 174 171 166 161 169 163 161 156 135 137 148 192 194 162 222 211 199 209 141 187 163 151 213 193 198 230 211 209 232 240 226 233 237 245 258 265 265 267 274 274 266 260 146 162 177 178 167
188 190 189 185 181 181 181 173 170 166 173 151 157 122 136 166 171 191 197 164 178 200 200 197 188 143 157 160 155 187 219 199 237 178 200 244 215 236 240 245 246 244 247 251 252 251 248 240 190 156 161 165 164 160
177 179 182 184 182 186 182 176 173 163 130 152 174 153 171 170 193 209 163 183 178 191 187 180 161 145 144 192 170 182 215 217 199 225 236 229 270 263 275 285 289 284 247 268 283 281 246 201 161 163 162 152 151 147
176 175 174 176 177 178 178 174 170 154 155 167 188 175 229 158 190 185 182 174 197 162 163 176 151 156 173 177 172 213 204 200 230 229 229 187 234 254 259 261 268 266 273 281 277 265 238 145 155 143 144 139 142 142
178 176 175 175 174 174 173 170 157 162 137 160 189 211 204 187 206 188 181 182 177 169 170 159 163 161 170 192 202 213 200 225 234 246 255 240 244 249 253 252 265 278 262 273 270 65 72 108 116 109 118 129 121 122
175 168 184 177 174 173 172 154 155 102 205 176 215 192 193 197 191 197 192 181 177 168 161 147 130 189 197 212 191 206 201 226 230 231 239 234 240 249 248 134 181 220 202 224 103 114 111 111 118 124 126 117 125 133
165 197 165 161 164 153 150 136 118 164 168 217 203 229 199 196 187 193 202 190 178 172 168 161 177 198 149 220 210 210 221 231 243 290 287 270 234 245 158 104 126 164 170 171 120 124 125 125 128 135 131 139 142 141
159 145 148 148 148 144 84 85 129 156 218 202 192 211 210 185 178 183 190 191 175 173 179 197 193 194 199 197 213 227 238 239 236 246 247 257 192 158 154 170 168 185 180 135 132 134 145 145 152 156 142 154 145 154
145 146 146 146 140 106 115 126 153 176 194 215 161 174 212 199 175 175 195 204 182 179 172 200 219 218 221 230 251 238 226 227 239 228 166 147 150 126 138 131 162 186 160 139 151 154 163 164 162 153 152 158 157 160
140 144 150 144 146 109 110 108 144 222 166 195 188 151 174 212 195 190 186 205 191 183 201 208 217 220 206 221 233 244 237 231 207 208 160 137 135 144 169 154 180 177 147 152 154 157 163 166 162 156 162 163 161 169
131 137 129 130 69 63 113 148 143 134 150 135 143 135 100 193 183 187 196 198 204 213 210 217 219 212 63 23 342 177 258 232 235 211 181 175 168 180 161 172 182 162 162 165 167 169 168 171 158 157 165 166 157 161
125 121 103 180 101 59 84 239 134 120 104 151 130 127 138 151 141 188 190 212 218 212 209 222 229 126 146 170 200 176 149 85 81 85 68 126 163 179 175 176 170 172 173 173 170 168 174 157 152 154 150 134 138 139
107 102 107 82 84 81 127 243 115 136 145 157 135 125 158 146 169 143 194 232 233 202 203 219 179 152 171 166 170 154 170 176 168 155 143 164 167 161 170 175 174 168 167 170 165 164 160 148 135 139 140 141 140 136
68 68 92 116 120 127 166 186 158 123 117 163 172 150 137 146 153 226 232 220 202 188 205 212 179 175 154 181 191 189 194 200 203 146 175 176 166 168 169 171 168 169 164 161 157 159 138 139 139 146 154 154 152 152
106 125 164 139 150 164 176 133 179 125 149 165 148 146 154 163 176 208 233 213 194 191 202 187 180 194 198 197 201 208 180 187 208 186 179 190 162 150 164 170 163 167 159 149 158 144 146 147 153 153 164 165 163 169
110 203 195 127 148 148 157 142 152 177 122 112 128 123 162 172 177 231 218 196 188 182 188 189 191 203 221 221 220 194 174 176 225 204 167 182 171 167 172 170 170 176 171 162 154 156 155 156 158 162 168 171 175 173
156 145 145 228 152 120 108 121 128 107 142 167 154 157 169 186 205 192 118 25 42 30 26 187 224 222 232 212 103 72 112 136 183 221 121 150 156 171 181 182 179 165 148 152 157 165 163 164 166 167 169 175 178 179
163 145 134 105 74 80 91 96 135 150 180 149 150 180 190 199 171 78 62 41 7 351 54 43 348 324 349 86 98 102 94 86 92 92 83 60 50 86 105 105 121 130 141 150 156 157 163 167 166 169 170 169 166 173
102 118 99 118 101 104 132 155 159 70 345 166 159 160 119 58 34 23 28 359 342 123 115 99 70 79 79 80 82 106 139 159 158 158 159 153 137 108 97 124 133 129 137 139 136 150 161 160 163 164 160 157 155 160
147 127 97 101 94 105 78 356 75 53 12 61 92 109 107 97 55 9 21 162 189 156 114 113 119 130 135 143 146 147 86 29 159 170 167 168 168 130 135 128 127 132 136 140 139 129 122 130 131 133 136 139 151 167
116 98 95 88 100 72 103 101 115 109 35 50 26 94 114 133 126 54 32 4 52 123 139 153 158 150 155 156 158 152 151 80 90 132 126 127 134 139 138 134 138 142 145 143 144 147 145 143 143 150 164 174 177 179
76 101 122 110 106 134 170 125 92 98 126 134 112 109 140 122 74 60 11 345 211 168 143 138 138 130 105 99 93 61 121 131 131 143 139 133 133 136 138 144 143 142 142 143 143 143 148 146 153 164 170 179 178 189
124 105 104 106 136 155 143 164 111 93 80 87 72 58 36 46 84 75 63 16 2 52 86 91 86 89 107 112 109 100 94 97 99 103 113 125 131 131 131 136 139 141 139 136 136 143 152 154 158 166 167 173 174 178